DECAYED

OBJECT AC, 47958 (Decayed)

Orbit data source: Space-Track

You're viewing an Uncataloged Satellite

Recently launched and/or uncataloged satellites may have evolving metadata. Metadata may include but not limited to: Owner, Maufacturer, Bus, Motor, and Mission.

OBJECT AC, 47958 was a satellite in LEO that was launched on Mon, 22 Mar 2021 UTC via a SOYUZ-2-1A launch vehicle from the Tyuratam Missile And Space Complex (TTMTR). Unknown objects in Earth's orbit typically refer to objects detected orbiting the Earth but have not yet been identified or cataloged. These objects could be anything from previously untracked satellites, spent rocket stages, debris from satellite collisions, or even natural meteoroids temporarily captured by Earth's gravity. This object's orbit decayed before it could be identified.

Not visible in the next 10 days
Identifier
47958, 2021-022AC
Orbit
Decayed
Country
Flag of TBDTBD
Related business
Manufacturer
Chosun U
Mission
Decayed Amateur Microgravity
Bus & Motor
CUBESAT 3U, Unknown motor
Mass
3 kg wet, 3 kg dry
Launch date (UTC)
2021-03-22 (5 years ago)
Launch vehicle
SOYUZ-2-1A
Launch site
Tyuratam Missile And Space Complex (TTMTR)
Object type
Unknown
Shape & HBR
Box, 0.1 m
Radar Cross Section
0.035 m², Medium (>0.1 m² and < 1m²)

Expand to show TLE details & history
Last TLE update: 2 weeks ago

TLE from 2 weeks ago
0 OBJECT AC
1 47958U 21022AC  26155.97246625  .08083315  25904-5  39532-3 0  9998
2 47958  97.3573  77.8531 0009048 219.4383 140.6260 16.42190978288061
Epoch: 2026-06-04T23:20Z
TLE epoch observation values (Epoch: 2026-06-04T23:20:21.083Z)
Latitude
-0.00006°
Longitude
-165.6438°
Altitude
167.812 km
Speed
7.803 km/s
True Right ascension
05h 11m 24s
True Declination
0° 00' 00"
Sunlit
Object was in daylight at epoch
Visualization orbit readout
Latitude
Unknown
Longitude
Unknown
Altitude
Unknown
Speed
Unknown
Apparent Right ascension
Unknown
Apparent Declination
Unknown
Sunlit
N/A
Visualization observer readout
Local Sidereal Time
21:39:29
Azimuth
Unknown
Elevation
Unknown
Doppler factor
Unknown
Orbital elements
Apogee altitude
162.696 km
Perigee altitude
150.871 km
Semi-major axis
6,534.92 km
Eccentricity
0.0009
Inclination
97.3573°
RAAN
77.8531°
Arg. of periapsis
219.4383°
True anomaly
140.69172°
Mean anomaly
140.626°
Eccentric anomaly
140.65886°
Mean motion
4.10849 °/min
Orbital period
87.62 mins
BSTAR
0.00039532
Loading maneuver chart data...
Computing Atmospheric mass density...
Loading historical data...
Loading historical data...
Loading historical data...
Loading historical data...
Loading historical data...
Loading historical data...
Loading historical data...

Documentation

Showing up to 5 results
|